| time (UTC) | temp C | wind direction | speed KPH | gust KPH | rain 1hr cm | rain 24hr cm | rain mn cm | humidity % | barometer mb |
| 20260905094053 | 20 | 262 | 3.2 | 17.7 | 0.00 | 0.28 | 0.08 | 65 | 1022.6 |
| 20260905093553 | 20 | 254 | 6.4 | 17.7 | 0.00 | 0.28 | 0.08 | 66 | 1022.6 |
| 20260905093055 | 20 | 234 | 4.8 | 16.1 | 0.00 | 0.28 | 0.08 | 70 | 1022.5 |
| 20260905092551 | 19 | 248 | 3.2 | 12.9 | 0.00 | 0.28 | 0.08 | 70 | 1022.5 |
| 20260905092051 | 19 | 267 | 4.8 | 19.3 | 0.00 | 0.28 | 0.08 | 69 | 1022.4 |
| 20260905091556 | 18 | 254 | 3.2 | 19.3 | 0.00 | 0.28 | 0.08 | 70 | 1022.5 |
| 20260905091051 | 18 | 267 | 3.2 | 14.5 | 0.00 | 0.28 | 0.08 | 71 | 1022.3 |
| 20260905090550 | 19 | 265 | 4.8 | 17.7 | 0.00 | 0.28 | 0.08 | 69 | 1022.3 |
| 20260905090050 | 19 | 255 | 6.4 | 17.7 | 0.00 | 0.28 | 0.08 | 69 | 1022.3 |
| 20260905085549 | 19 | 256 | 3.2 | 22.5 | 0.00 | 0.28 | 0.08 | 68 | 1022.3 |
| 20260905085047 | 18 | 266 | 6.4 | 22.5 | 0.00 | 0.28 | 0.08 | 69 | 1022.2 |
| 20260905084545 | 18 | 265 | 4.8 | 22.5 | 0.00 | 0.28 | 0.08 | 75 | 1022.2 |
| 20260905084049 | 18 | 250 | 6.4 | 19.3 | 0.00 | 0.28 | 0.08 | 74 | 1022.0 |
| 20260905083546 | 18 | 244 | 8.0 | 17.7 | 0.00 | 0.28 | 0.08 | 74 | 1022.0 |
| 20260905083044 | 19 | 259 | 3.2 | 20.9 | 0.00 | 0.28 | 0.08 | 75 | 1022.0 |
| 20260905082543 | 18 | 265 | 8.0 | 20.9 | 0.00 | 0.28 | 0.08 | 76 | 1022.0 |
| 20260905082042 | 18 | 257 | 4.8 | 19.3 | 0.00 | 0.28 | 0.08 | 78 | 1021.8 |
| 20260905081544 | 18 | 247 | 9.7 | 20.9 | 0.00 | 0.28 | 0.08 | 78 | 1021.7 |
| 20260905081040 | 18 | 258 | 9.7 | 20.9 | 0.00 | 0.28 | 0.08 | 80 | 1021.9 |
| 20260905080541 | 18 | 251 | 4.8 | 19.3 | 0.00 | 0.28 | 0.08 | 80 | 1021.7 |
| 20260905080043 | 18 | 254 | 8.0 | 19.3 | 0.00 | 0.28 | 0.08 | 82 | 1021.6 |
| 20260905075539 | 18 | 246 | 8.0 | 14.5 | 0.00 | 0.28 | 0.08 | 83 | 1021.5 |
| 20260905075040 | 17 | 238 | 9.7 | 17.7 | 0.00 | 0.28 | 0.08 | 83 | 1021.5 |
| 20260905074536 | 17 | 236 | 11.3 | 17.7 | 0.00 | 0.28 | 0.08 | 84 | 1021.4 |
| 20260905074035 | 17 | 240 | 6.4 | 17.7 | 0.00 | 0.28 | 0.08 | 83 | 1021.4 |
| 20260905073535 | 17 | 250 | 4.8 | 17.7 | 0.00 | 0.28 | 0.08 | 84 | 1021.4 |
| 20260905073035 | 17 | 241 | 9.7 | 17.7 | 0.00 | 0.28 | 0.08 | 84 | 1021.5 |
| 20260905072533 | 17 | 250 | 8.0 | 17.7 | 0.00 | 0.28 | 0.08 | 85 | 1021.2 |
| 20260905072035 | 17 | 237 | 6.4 | 14.5 | 0.00 | 0.28 | 0.08 | 86 | 1021.2 |
| 20260905071531 | 17 | 236 | 1.6 | 8.0 | 0.00 | 0.28 | 0.08 | 88 | 1021.3 |
| 20260905071033 | 17 | 236 | 3.2 | 14.5 | 0.00 | 0.28 | 0.08 | 89 | 1021.2 |
| 20260905070529 | 17 | 236 | 8.0 | 14.5 | 0.00 | 0.28 | 0.08 | 91 | 1021.2 |
| 20260905070034 | 17 | 231 | 6.4 | 16.1 | 0.00 | 0.28 | 0.08 | 92 | 1021.1 |
| 20260905065529 | 17 | 248 | 8.0 | 16.1 | 0.00 | 0.28 | 0.08 | 93 | 1021.1 |
| 20260905065028 | 16 | 213 | 4.8 | 9.7 | 0.00 | 0.28 | 0.08 | 93 | 1021.1 |
| 20260905064528 | 16 | 325 | 1.6 | 6.4 | 0.00 | 0.28 | 0.08 | 94 | 1021.0 |
| 20260905064026 | 16 | 329 | 1.6 | 4.8 | 0.00 | 0.28 | 0.08 | 94 | 1021.1 |
| 20260905063524 | 16 | 340 | 0.0 | 0.0 | 0.00 | 0.28 | 0.08 | 94 | 1021.1 |
| 20260905063024 | 15 | 340 | 0.0 | 0.0 | 0.00 | 0.28 | 0.08 | 94 | 1021.0 |
| 20260905062522 | 15 | 340 | 0.0 | 0.0 | 0.00 | 0.28 | 0.08 | 94 | 1020.9 |
| 20260905062022 | 15 | 340 | 0.0 | 0.0 | 0.00 | 0.28 | 0.08 | 94 | 1020.9 |
| 20260905061522 | 15 | 340 | 0.0 | 0.0 | 0.00 | 0.28 | 0.08 | 94 | 1020.8 |
| 20260905061021 | 15 | 340 | 0.0 | 0.0 | 0.00 | 0.28 | 0.08 | 94 | 1020.7 |
| 20260905060520 | 15 | 340 | 0.0 | 0.0 | 0.00 | 0.28 | 0.08 | 94 | 1020.5 |
| 20260905060021 | 14 | 340 | 0.0 | 1.6 | 0.00 | 0.28 | 0.08 | 94 | 1020.4 |
| 20260905055519 | 14 | 340 | 0.0 | 1.6 | 0.00 | 0.28 | 0.08 | 94 | 1020.5 |
| 20260905055022 | 14 | 340 | 0.0 | 0.0 | 0.00 | 0.28 | 0.08 | 94 | 1020.5 |
| 20260905054519 | 14 | 340 | 0.0 | 0.0 | 0.00 | 0.28 | 0.08 | 94 | 1020.4 |
| 20260905054018 | 14 | 340 | 0.0 | 0.0 | 0.00 | 0.28 | 0.08 | 94 | 1020.3 |
| 20260905053517 | 14 | 340 | 0.0 | 0.0 | 0.00 | 0.28 | 0.08 | 94 | 1020.3 |
| 20260905053017 | 14 | 340 | 0.0 | 0.0 | 0.00 | 0.28 | 0.08 | 94 | 1020.2 |
| 20260905052516 | 14 | 340 | 0.0 | 0.0 | 0.00 | 0.28 | 0.08 | 94 | 1019.9 |
| 20260905052016 | 14 | 340 | 0.0 | 0.0 | 0.00 | 0.28 | 0.08 | 94 | 1020.0 |
| 20260905051517 | 14 | 340 | 0.0 | 0.0 | 0.00 | 0.28 | 0.08 | 94 | 1019.7 |
| 20260905051014 | 13 | 340 | 0.0 | 0.0 | 0.00 | 0.28 | 0.08 | 94 | 1019.6 |
| 20260905050514 | 13 | 340 | 0.0 | 0.0 | 0.00 | 0.28 | 0.08 | 94 | 1019.5 |
| 20260905050014 | 13 | 340 | 0.0 | 0.0 | 0.00 | 0.28 | 0.08 | 93 | 1019.4 |
| 20260905045512 | 13 | 340 | 0.0 | 0.0 | 0.00 | 0.28 | 0.08 | 94 | 1019.3 |
| 20260905045012 | 14 | 340 | 0.0 | 0.0 | 0.00 | 0.28 | 0.08 | 94 | 1019.3 |
| 20260905044513 | 14 | 340 | 0.0 | 3.2 | 0.00 | 0.28 | 0.08 | 94 | 1019.2 |
| 20260905044009 | 14 | 340 | 0.0 | 3.2 | 0.00 | 0.28 | 0.08 | 94 | 1019.1 |
| 20260905043509 | 14 | 340 | 0.0 | 0.0 | 0.00 | 0.28 | 0.08 | 94 | 1019.0 |
| 20260905043009 | 15 | 340 | 0.0 | 0.0 | 0.00 | 0.28 | 0.08 | 94 | 1019.1 |
| 20260905042509 | 15 | 340 | 0.0 | 0.0 | 0.00 | 0.28 | 0.08 | 94 | 1019.1 |
| 20260905042011 | 15 | 340 | 0.0 | 0.0 | 0.00 | 0.28 | 0.08 | 94 | 1019.1 |
| 20260905041510 | 15 | 340 | 0.0 | 0.0 | 0.00 | 0.28 | 0.08 | 94 | 1019.1 |
| 20260905041007 | 15 | 340 | 0.0 | 0.0 | 0.00 | 0.28 | 0.08 | 94 | 1019.0 |
| 20260905040508 | 15 | 340 | 0.0 | 0.0 | 0.00 | 0.28 | 0.08 | 94 | 1019.0 |
| 20260905040009 | 15 | 340 | 0.0 | 0.0 | 0.00 | 0.28 | 0.08 | 94 | 1019.0 |
| 20260905035507 | 14 | 340 | 0.0 | 0.0 | 0.00 | 0.28 | 0.08 | 94 | 1018.9 |
| 20260905035007 | 14 | 340 | 0.0 | 0.0 | 0.00 | 0.28 | 0.08 | 93 | 1019.0 |
| 20260905034513 | 15 | 340 | 0.0 | 0.0 | 0.00 | 0.28 | 0.08 | 93 | 1018.9 |
| 20260905034006 | 15 | 340 | 0.0 | 0.0 | 0.00 | 0.28 | 0.08 | 93 | 1018.9 |
| 20260905033505 | 15 | 340 | 0.0 | 0.0 | 0.00 | 0.28 | 0.08 | 93 | 1018.9 |
| 20260905033005 | 15 | 340 | 0.0 | 0.0 | 0.00 | 0.28 | 0.08 | 93 | 1018.9 |
| 20260905032505 | 15 | 340 | 0.0 | 0.0 | 0.00 | 0.28 | 0.08 | 94 | 1018.8 |
| 20260905032003 | 15 | 340 | 0.0 | 0.0 | 0.00 | 0.28 | 0.08 | 93 | 1018.7 |
| 20260905031503 | 15 | 340 | 0.0 | 0.0 | 0.00 | 0.28 | 0.08 | 93 | 1018.6 |
| 20260905031002 | 15 | 340 | 0.0 | 0.0 | 0.00 | 0.28 | 0.08 | 93 | 1018.7 |
| 20260905030503 | 15 | 340 | 0.0 | 0.0 | 0.00 | 0.28 | 0.08 | 93 | 1018.7 |
| 20260905030005 | 15 | 340 | 0.0 | 1.6 | 0.00 | 0.28 | 0.08 | 93 | 1018.6 |
| 20260905025502 | 15 | 340 | 0.0 | 1.6 | 0.00 | 0.28 | 0.08 | 93 | 1018.6 |
| 20260905025002 | 14 | 340 | 0.0 | 0.0 | 0.00 | 0.28 | 0.08 | 93 | 1018.5 |
| 20260905024502 | 15 | 340 | 0.0 | 0.0 | 0.00 | 0.28 | 0.08 | 93 | 1018.5 |
| 20260905024001 | 15 | 340 | 0.0 | 0.0 | 0.00 | 0.28 | 0.08 | 93 | 1018.5 |
| 20260905023502 | 14 | 340 | 0.0 | 0.0 | 0.00 | 0.28 | 0.08 | 93 | 1018.5 |
| 20260905023104 | 14 | 340 | 0.0 | 0.0 | 0.00 | 0.28 | 0.08 | 93 | 1018.5 |
| 20260905022603 | 14 | 340 | 0.0 | 0.0 | 0.00 | 0.28 | 0.08 | 93 | 1018.4 |
| 20260905022101 | 15 | 340 | 0.0 | 0.0 | 0.00 | 0.28 | 0.08 | 93 | 1018.3 |
| 20260905021559 | 15 | 340 | 0.0 | 4.8 | 0.00 | 0.28 | 0.08 | 93 | 1018.4 |
| 20260905021101 | 15 | 340 | 0.0 | 4.8 | 0.00 | 0.28 | 0.08 | 93 | 1018.4 |
| 20260905020602 | 15 | 340 | 0.0 | 0.0 | 0.00 | 0.28 | 0.08 | 93 | 1018.3 |
| 20260905020110 | 15 | 340 | 0.0 | 4.8 | 0.00 | 0.28 | 0.08 | 93 | 1018.3 |
| 20260905015557 | 15 | 340 | 0.0 | 4.8 | 0.00 | 0.28 | 0.08 | 93 | 1018.3 |
| 20260905015057 | 15 | 340 | 0.0 | 4.8 | 0.00 | 0.28 | 0.08 | 93 | 1018.1 |
| 20260905014600 | 15 | 340 | 0.0 | 1.6 | 0.00 | 0.28 | 0.08 | 93 | 1018.1 |
| 20260905014055 | 15 | 340 | 0.0 | 3.2 | 0.00 | 0.28 | 0.08 | 93 | 1017.9 |
| 20260905013554 | 15 | 340 | 0.0 | 3.2 | 0.03 | 0.28 | 0.08 | 93 | 1018.1 |
| 20260905013108 | 15 | 340 | 1.6 | 4.8 | 0.05 | 0.28 | 0.08 | 93 | 1018.1 |
| 20260905012555 | 15 | 340 | 0.0 | 4.8 | 0.05 | 0.28 | 0.08 | 93 | 1018.0 |
| 20260905012055 | 15 | 340 | 1.6 | 4.8 | 0.05 | 0.28 | 0.08 | 92 | 1017.9 |
| 20260905011629 | 15 | 340 | 0.0 | 4.8 | 0.05 | 0.28 | 0.08 | 92 | 1018.0 |
| 20260905011054 | 15 | 340 | 1.6 | 4.8 | 0.05 | 0.28 | 0.08 | 93 | 1018.2 |
| 20260905010553 | 15 | 340 | 0.0 | 0.0 | 0.05 | 0.28 | 0.08 | 92 | 1018.0 |
| 20260905010053 | 15 | 341 | 0.0 | 0.0 | 0.05 | 0.28 | 0.08 | 92 | 1017.7 |
| 20260905005553 | 15 | 340 | 0.0 | 0.0 | 0.05 | 0.28 | 0.08 | 92 | 1017.7 |
| 20260905005053 | 15 | 340 | 0.0 | 0.0 | 0.05 | 0.28 | 0.08 | 92 | 1017.7 |
| 20260905004552 | 15 | 340 | 0.0 | 0.0 | 0.05 | 0.28 | 0.08 | 92 | 1017.8 |
| 20260905004051 | 15 | 340 | 0.0 | 0.0 | 0.05 | 0.28 | 0.08 | 92 | 1017.8 |
| 20260905003553 | 15 | 340 | 0.0 | 1.6 | 0.05 | 0.25 | 0.05 | 92 | 1017.8 |
| 20260905003052 | 15 | 340 | 0.0 | 1.6 | 0.03 | 0.23 | 0.05 | 92 | 1018.0 |
| 20260905002550 | 15 | 340 | 0.0 | 0.0 | 0.00 | 0.23 | 0.03 | 92 | 1018.0 |
| 20260905002050 | 15 | 340 | 0.0 | 1.6 | 0.00 | 0.23 | 0.03 | 92 | 1018.0 |
| 20260905001557 | 15 | 340 | 0.0 | 3.2 | 0.00 | 0.23 | 0.03 | 92 | 1017.8 |
| 20260905001050 | 15 | 340 | 1.6 | 4.8 | 0.00 | 0.23 | 0.03 | 92 | 1018.0 |
| 20260905000550 | 15 | 340 | 1.6 | 3.2 | 0.00 | 0.23 | 0.03 | 92 | 1018.0 |
| 20260905000049 | 15 | 340 | 0.0 | 0.0 | 0.00 | 0.23 | 0.03 | 92 | 1017.6 |
| 20260904235548 | 15 | 340 | 0.0 | 0.0 | 0.00 | 0.23 | 0.03 | 92 | 1017.5 |
| 20260904235051 | 15 | 340 | 0.0 | 1.6 | 0.00 | 0.23 | 0.03 | 92 | 1017.5 |
| 20260904234548 | 15 | 340 | 0.0 | 3.2 | 0.00 | 0.23 | 0.03 | 92 | 1017.6 |
| 20260904234047 | 15 | 340 | 0.0 | 3.2 | 0.00 | 0.23 | 0.03 | 92 | 1017.6 |
| 20260904233547 | 15 | 340 | 0.0 | 3.2 | 0.00 | 0.23 | 0.03 | 92 | 1017.5 |
| 20260904233048 | 15 | 340 | 0.0 | 3.2 | 0.00 | 0.23 | 0.03 | 92 | 1017.5 |
| 20260904232547 | 15 | 340 | 0.0 | 3.2 | 0.00 | 0.23 | 0.03 | 92 | 1017.3 |
| 20260904232047 | 15 | 340 | 0.0 | 0.0 | 0.03 | 0.23 | 0.03 | 92 | 1017.2 |
| 20260904231546 | 15 | 340 | 0.0 | 0.0 | 0.03 | 0.23 | 0.03 | 92 | 1017.2 |
| 20260904231046 | 15 | 340 | 0.0 | 0.0 | 0.03 | 0.23 | 0.03 | 92 | 1017.3 |
| 20260904230546 | 15 | 340 | 0.0 | 1.6 | 0.03 | 0.23 | 0.03 | 92 | 1017.2 |
| 20260904230046 | 15 | 340 | 0.0 | 1.6 | 0.03 | 0.23 | 0.03 | 92 | 1017.0 |
| 20260904225546 | 15 | 340 | 0.0 | 3.2 | 0.03 | 0.23 | 0.03 | 92 | 1017.4 |
| 20260904225048 | 15 | 340 | 0.0 | 3.2 | 0.03 | 0.23 | 0.03 | 92 | 1017.2 |
| 20260904224547 | 15 | 340 | 0.0 | 3.2 | 0.03 | 0.23 | 0.03 | 92 | 1017.1 |
| 20260904224045 | 15 | 340 | 0.0 | 3.2 | 0.03 | 0.23 | 0.03 | 92 | 1017.3 |
| 20260904223546 | 15 | 340 | 0.0 | 0.0 | 0.03 | 0.23 | 0.03 | 92 | 1017.5 |
| 20260904223044 | 15 | 340 | 0.0 | 0.0 | 0.03 | 0.23 | 0.03 | 92 | 1017.4 |
| 20260904222550 | 15 | 340 | 0.0 | 1.6 | 0.00 | 0.20 | 0.00 | 92 | 1017.4 |
| 20260904222047 | 15 | 340 | 0.0 | 3.2 | 0.00 | 0.20 | 0.00 | 91 | 1017.5 |
| 20260904221543 | 15 | 340 | 0.0 | 3.2 | 0.00 | 0.20 | 0.00 | 91 | 1017.5 |
| 20260904221042 | 15 | 340 | 0.0 | 3.2 | 0.00 | 0.20 | 0.00 | 91 | 1017.0 |
| 20260904220542 | 15 | 340 | 0.0 | 1.6 | 0.00 | 0.20 | 0.00 | 91 | 1017.0 |
| 20260904220042 | 15 | 340 | 0.0 | 0.0 | 0.03 | 0.20 | 0.00 | 91 | 1017.1 |
| 20260904215542 | 15 | 340 | 0.0 | 0.0 | 0.03 | 0.20 | 0.20 | 91 | 1016.8 |
| 20260904215044 | 15 | 340 | 0.0 | 0.0 | 0.05 | 0.20 | 0.20 | 91 | 1016.8 |
| 20260904214539 | 15 | 340 | 0.0 | 0.0 | 0.05 | 0.20 | 0.20 | 91 | 1016.9 |
| 20260904214039 | 15 | 340 | 0.0 | 4.8 | 0.08 | 0.20 | 0.20 | 90 | 1017.0 |
| 20260904213539 | 15 | 340 | 0.0 | 6.4 | 0.08 | 0.20 | 0.20 | 90 | 1017.1 |
| 20260904213039 | 15 | 340 | 1.6 | 6.4 | 0.08 | 0.20 | 0.20 | 90 | 1017.3 |
| 20260904212538 | 15 | 340 | 0.0 | 3.2 | 0.08 | 0.20 | 0.20 | 89 | 1017.2 |
| 20260904212038 | 16 | 340 | 0.0 | 1.6 | 0.08 | 0.20 | 0.20 | 89 | 1017.3 |
| 20260904211537 | 15 | 340 | 0.0 | 6.4 | 0.08 | 0.20 | 0.20 | 89 | 1017.0 |
| 20260904211037 | 15 | 340 | 1.6 | 9.7 | 0.08 | 0.20 | 0.20 | 89 | 1016.8 |
| 20260904210538 | 15 | 340 | 3.2 | 9.7 | 0.05 | 0.18 | 0.18 | 89 | 1016.8 |
| 20260904210037 | 16 | 339 | 3.2 | 12.9 | 0.05 | 0.18 | 0.18 | 89 | 1017.0 |
| 20260904205537 | 16 | 338 | 4.8 | 14.5 | 0.08 | 0.18 | 0.18 | 89 | 1017.2 |
| 20260904205036 | 16 | 342 | 3.2 | 14.5 | 0.08 | 0.15 | 0.15 | 88 | 1016.9 |
| 20260904204537 | 16 | 334 | 6.4 | 14.5 | 0.10 | 0.15 | 0.15 | 88 | 1016.7 |
| 20260904204036 | 16 | 339 | 4.8 | 22.5 | 0.10 | 0.13 | 0.13 | 88 | 1016.7 |
| 20260904203536 | 16 | 338 | 6.4 | 22.5 | 0.13 | 0.13 | 0.13 | 89 | 1016.6 |
| 20260904203036 | 16 | 323 | 3.2 | 19.3 | 0.13 | 0.13 | 0.13 | 89 | 1016.7 |
| 20260904202535 | 16 | 332 | 1.6 | 12.9 | 0.13 | 0.13 | 0.13 | 90 | 1016.5 |
| 20260904202037 | 16 | 337 | 1.6 | 4.8 | 0.13 | 0.13 | 0.13 | 90 | 1016.3 |
| 20260904201535 | 16 | 337 | 1.6 | 14.5 | 0.13 | 0.13 | 0.13 | 89 | 1016.0 |
| 20260904201035 | 15 | 337 | 3.2 | 20.9 | 0.13 | 0.13 | 0.13 | 89 | 1016.2 |
| 20260904200534 | 16 | 339 | 6.4 | 20.9 | 0.13 | 0.13 | 0.13 | 88 | 1016.2 |
| 20260904200033 | 16 | 347 | 4.8 | 24.1 | 0.13 | 0.13 | 0.13 | 88 | 1016.1 |
| 20260904195534 | 17 | 350 | 9.7 | 24.1 | 0.10 | 0.10 | 0.10 | 87 | 1016.4 |
| 20260904195031 | 18 | 346 | 4.8 | 20.9 | 0.05 | 0.05 | 0.05 | 88 | 1016.3 |
| 20260904194532 | 18 | 317 | 6.4 | 24.1 | 0.05 | 0.05 | 0.05 | 86 | 1015.8 |
| 20260904194030 | 18 | 312 | 4.8 | 30.6 | 0.03 | 0.03 | 0.03 | 83 | 1015.5 |
| 20260904193530 | 20 | 340 | 12.9 | 33.8 | 0.00 | 0.00 | 0.00 | 79 | 1015.4 |
| 20260904193030 | 20 | 331 | 12.9 | 33.8 | 0.00 | 0.00 | 0.00 | 76 | 1015.1 |
| 20260904192529 | 20 | 287 | 11.3 | 27.4 | 0.00 | 0.00 | 0.00 | 75 | 1015.0 |
| 20260904192029 | 21 | 277 | 8.0 | 27.4 | 0.00 | 0.00 | 0.00 | 74 | 1014.7 |
| 20260904191529 | 21 | 337 | 6.4 | 24.1 | 0.00 | 0.00 | 0.00 | 74 | 1014.5 |
| 20260904191029 | 21 | 333 | 8.0 | 30.6 | 0.00 | 0.00 | 0.00 | 73 | 1014.4 |
| 20260904190529 | 22 | 332 | 12.9 | 30.6 | 0.00 | 0.00 | 0.00 | 72 | 1014.0 |
| 20260904190028 | 22 | 227 | 12.9 | 29.0 | 0.00 | 0.00 | 0.00 | 70 | 1013.6 |
| 20260904185529 | 24 | 342 | 12.9 | 29.0 | 0.00 | 0.00 | 0.00 | 64 | 1013.5 |
| 20260904185028 | 25 | 265 | 4.8 | 12.9 | 0.00 | 0.00 | 0.00 | 56 | 1012.9 |
| 20260904184533 | 25 | 265 | 4.8 | 16.1 | 0.00 | 0.00 | 0.00 | 57 | 1012.7 |
| 20260904184028 | 25 | 259 | 3.2 | 17.7 | 0.00 | 0.00 | 0.00 | 57 | 1012.5 |
| 20260904183528 | 25 | 260 | 4.8 | 17.7 | 0.00 | 0.00 | 0.00 | 57 | 1012.6 |
| 20260904183027 | 25 | 259 | 6.4 | 16.1 | 0.00 | 0.00 | 0.00 | 57 | 1012.5 |
| 20260904182527 | 25 | 254 | 4.8 | 14.5 | 0.00 | 0.00 | 0.00 | 57 | 1012.3 |
| 20260904182028 | 25 | 250 | 3.2 | 20.9 | 0.00 | 0.00 | 0.00 | 57 | 1012.2 |
| 20260904181542 | 25 | 257 | 9.7 | 22.5 | 0.00 | 0.00 | 0.00 | 57 | 1012.1 |
| 20260904181028 | 25 | 276 | 9.7 | 22.5 | 0.00 | 0.00 | 0.00 | 57 | 1012.1 |
| 20260904180528 | 25 | 261 | 3.2 | 9.7 | 0.00 | 0.00 | 0.00 | 57 | 1012.1 |
| 20260904180027 | 26 | 259 | 3.2 | 11.3 | 0.00 | 0.00 | 0.00 | 57 | 1012.0 |
| 20260904175526 | 26 | 261 | 4.8 | 11.3 | 0.00 | 0.00 | 0.00 | 56 | 1012.1 |
| 20260904175026 | 26 | 261 | 3.2 | 14.5 | 0.00 | 0.00 | 0.00 | 56 | 1012.0 |
| 20260904174526 | 26 | 252 | 4.8 | 17.7 | 0.00 | 0.00 | 0.00 | 56 | 1012.0 |
| 20260904174026 | 26 | 260 | 4.8 | 17.7 | 0.00 | 0.00 | 0.00 | 55 | 1012.0 |
| 20260904173525 | 26 | 266 | 6.4 | 14.5 | 0.00 | 0.00 | 0.00 | 55 | 1012.0 |
| 20260904173028 | 26 | 259 | 6.4 | 24.1 | 0.00 | 0.00 | 0.00 | 54 | 1011.9 |
| 20260904172526 | 26 | 261 | 6.4 | 24.1 | 0.00 | 0.00 | 0.00 | 54 | 1012.1 |
| 20260904172029 | 27 | 262 | 8.0 | 19.3 | 0.00 | 0.00 | 0.00 | 54 | 1012.1 |
| 20260904171525 | 27 | 268 | 6.4 | 27.4 | 0.00 | 0.00 | 0.00 | 53 | 1012.1 |
| 20260904171029 | 27 | 262 | 11.3 | 27.4 | 0.00 | 0.00 | 0.00 | 53 | 1011.9 |
| 20260904170525 | 27 | 252 | 6.4 | 17.7 | 0.00 | 0.00 | 0.00 | 53 | 1012.0 |
| 20260904170025 | 27 | 266 | 6.4 | 17.7 | 0.00 | 0.00 | 0.00 | 52 | 1011.9 |
| 20260904165525 | 27 | 261 | 3.2 | 12.9 | 0.00 | 0.00 | 0.00 | 52 | 1012.0 |
| 20260904165025 | 27 | 261 | 4.8 | 16.1 | 0.00 | 0.00 | 0.00 | 52 | 1011.9 |
| 20260904164524 | 27 | 262 | 3.2 | 12.9 | 0.00 | 0.00 | 0.00 | 52 | 1011.9 |
| 20260904164025 | 27 | 270 | 4.8 | 17.7 | 0.00 | 0.00 | 0.00 | 52 | 1011.8 |
| 20260904163526 | 27 | 276 | 4.8 | 17.7 | 0.00 | 0.00 | 0.00 | 52 | 1011.9 |
| 20260904163024 | 27 | 262 | 4.8 | 12.9 | 0.00 | 0.00 | 0.00 | 52 | 1011.9 |
| 20260904162525 | 27 | 323 | 3.2 | 16.1 | 0.00 | 0.00 | 0.00 | 51 | 1011.8 |
| 20260904162023 | 27 | 250 | 4.8 | 32.2 | 0.00 | 0.00 | 0.00 | 51 | 1011.9 |
| 20260904161523 | 27 | 232 | 6.4 | 32.2 | 0.00 | 0.00 | 0.00 | 51 | 1011.9 |
| 20260904161023 | 27 | 269 | 4.8 | 24.1 | 0.00 | 0.00 | 0.00 | 50 | 1011.9 |
| 20260904160523 | 28 | 259 | 11.3 | 27.4 | 0.00 | 0.00 | 0.00 | 50 | 1011.9 |
| 20260904160023 | 28 | 257 | 16.1 | 32.2 | 0.00 | 0.00 | 0.00 | 50 | 1011.9 |
| 20260904155522 | 28 | 264 | 12.9 | 32.2 | 0.00 | 0.00 | 0.00 | 50 | 1012.0 |
| 20260904155022 | 28 | 261 | 8.0 | 35.4 | 0.00 | 0.00 | 0.00 | 49 | 1011.9 |
| 20260904154530 | 28 | 252 | 16.1 | 35.4 | 0.00 | 0.00 | 0.00 | 49 | 1011.9 |
| 20260904154025 | 28 | 267 | 8.0 | 20.9 | 0.00 | 0.00 | 0.00 | 49 | 1011.9 |
| 20260904153522 | 28 | 261 | 6.4 | 17.7 | 0.00 | 0.00 | 0.00 | 51 | 1011.9 |
| 20260904153022 | 28 | 260 | 4.8 | 17.7 | 0.00 | 0.00 | 0.00 | 50 | 1011.9 |
| 20260904152524 | 28 | 268 | 6.4 | 17.7 | 0.00 | 0.00 | 0.00 | 50 | 1012.0 |
| 20260904152021 | 28 | 259 | 3.2 | 25.7 | 0.00 | 0.00 | 0.00 | 51 | 1011.9 |
| 20260904151522 | 28 | 262 | 6.4 | 25.7 | 0.00 | 0.00 | 0.00 | 49 | 1012.0 |
| 20260904151021 | 28 | 270 | 8.0 | 24.1 | 0.00 | 0.00 | 0.00 | 49 | 1012.1 |
| 20260904150523 | 28 | 261 | 12.9 | 29.0 | 0.00 | 0.00 | 0.00 | 48 | 1012.0 |
| 20260904150021 | 28 | 272 | 8.0 | 24.1 | 0.00 | 0.00 | 0.00 | 48 | 1012.1 |
| 20260904145521 | 28 | 254 | 9.7 | 25.7 | 0.00 | 0.00 | 0.00 | 48 | 1012.0 |
| 20260904145021 | 29 | 273 | 9.7 | 27.4 | 0.00 | 0.00 | 0.00 | 48 | 1012.1 |
| 20260904144519 | 29 | 278 | 14.5 | 27.4 | 0.00 | 0.00 | 0.00 | 47 | 1012.1 |
| 20260904144022 | 29 | 289 | 6.4 | 24.1 | 0.00 | 0.00 | 0.00 | 49 | 1012.0 |
| 20260904143519 | 29 | 273 | 11.3 | 29.0 | 0.00 | 0.00 | 0.00 | 48 | 1011.9 |
| 20260904143030 | 29 | 271 | 16.1 | 35.4 | 0.00 | 0.00 | 0.00 | 48 | 1011.9 |
| 20260904142520 | 29 | 259 | 16.1 | 35.4 | 0.00 | 0.00 | 0.00 | 48 | 1012.0 |
| 20260904142023 | 29 | 269 | 17.7 | 33.8 | 0.00 | 0.00 | 0.00 | 48 | 1011.9 |
| 20260904141519 | 29 | 254 | 25.7 | 38.6 | 0.00 | 0.00 | 0.00 | 47 | 1011.9 |
| 20260904141018 | 29 | 241 | 16.1 | 38.6 | 0.00 | 0.00 | 0.00 | 46 | 1012.0 |
| 20260904140519 | 29 | 258 | 9.7 | 37.0 | 0.00 | 0.00 | 0.00 | 48 | 1011.9 |
| 20260904140033 | 28 | 266 | 17.7 | 32.2 | 0.00 | 0.00 | 0.00 | 48 | 1011.9 |
| 20260904135519 | 28 | 284 | 17.7 | 33.8 | 0.00 | 0.00 | 0.00 | 49 | 1011.9 |
| 20260904135019 | 28 | 266 | 14.5 | 33.8 | 0.00 | 0.00 | 0.00 | 48 | 1011.9 |
| 20260904134517 | 28 | 281 | 16.1 | 30.6 | 0.00 | 0.00 | 0.00 | 48 | 1011.9 |
| 20260904134017 | 28 | 252 | 19.3 | 30.6 | 0.00 | 0.00 | 0.00 | 50 | 1012.0 |
| 20260904133518 | 28 | 235 | 16.1 | 30.6 | 0.00 | 0.00 | 0.00 | 49 | 1012.0 |
| 20260904133016 | 28 | 257 | 19.3 | 30.6 | 0.00 | 0.00 | 0.00 | 49 | 1012.2 |
| 20260904132516 | 29 | 269 | 8.0 | 32.2 | 0.00 | 0.00 | 0.00 | 48 | 1012.2 |
| 20260904132016 | 29 | 250 | 20.9 | 37.0 | 0.00 | 0.00 | 0.00 | 48 | 1012.2 |
| 20260904131515 | 29 | 284 | 19.3 | 37.0 | 0.00 | 0.00 | 0.00 | 48 | 1012.3 |
| 20260904131015 | 29 | 257 | 14.5 | 30.6 | 0.00 | 0.00 | 0.00 | 49 | 1012.3 |
| 20260904130515 | 29 | 281 | 12.9 | 40.2 | 0.00 | 0.00 | 0.00 | 51 | 1012.4 |
| 20260904130014 | 29 | 248 | 24.1 | 40.2 | 0.00 | 0.00 | 0.00 | 48 | 1012.6 |
| 20260904125514 | 29 | 271 | 17.7 | 41.8 | 0.00 | 0.00 | 0.00 | 48 | 1012.4 |
| 20260904125014 | 30 | 246 | 22.5 | 41.8 | 0.00 | 0.00 | 0.00 | 49 | 1012.4 |
| 20260904124515 | 30 | 269 | 16.1 | 33.8 | 0.00 | 0.00 | 0.00 | 50 | 1012.5 |
| 20260904124011 | 30 | 237 | 14.5 | 37.0 | 0.00 | 0.00 | 0.00 | 49 | 1012.5 |
| 20260904123515 | 29 | 257 | 20.9 | 37.0 | 0.00 | 0.00 | 0.00 | 51 | 1012.5 |
| 20260904123010 | 29 | 226 | 16.1 | 32.2 | 0.00 | 0.00 | 0.00 | 51 | 1012.6 |
| 20260904122512 | 29 | 253 | 17.7 | 32.2 | 0.00 | 0.00 | 0.00 | 52 | 1012.7 |
| 20260904122009 | 29 | 254 | 19.3 | 35.4 | 0.00 | 0.00 | 0.00 | 51 | 1012.9 |
| 20260904121510 | 29 | 251 | 16.1 | 37.0 | 0.00 | 0.00 | 0.00 | 52 | 1012.9 |
| 20260904121009 | 29 | 257 | 17.7 | 38.6 | 0.00 | 0.00 | 0.00 | 51 | 1013.1 |
| 20260904120507 | 29 | 236 | 24.1 | 38.6 | 0.00 | 0.00 | 0.00 | 52 | 1013.1 |
| 20260904120006 | 29 | 246 | 19.3 | 32.2 | 0.00 | 0.00 | 0.00 | 51 | 1013.2 |
| 20260904115505 | 29 | 253 | 8.0 | 25.7 | 0.00 | 0.00 | 0.00 | 53 | 1013.2 |
| 20260904115004 | 28 | 248 | 8.0 | 25.7 | 0.00 | 0.00 | 0.00 | 52 | 1013.3 |
| 20260904114503 | 29 | 268 | 8.0 | 25.7 | 0.00 | 0.00 | 0.00 | 53 | 1013.5 |
| 20260904114002 | 28 | 248 | 11.3 | 35.4 | 0.00 | 0.00 | 0.00 | 56 | 1013.6 |
| 20260904113502 | 28 | 236 | 19.3 | 35.4 | 0.00 | 0.00 | 0.00 | 56 | 1013.5 |
| 20260904113101 | 28 | 257 | 11.3 | 32.2 | 0.00 | 0.00 | 0.00 | 55 | 1013.6 |
| 20260904112600 | 28 | 229 | 19.3 | 37.0 | 0.00 | 0.00 | 0.00 | 59 | 1013.7 |
| 20260904112058 | 27 | 251 | 19.3 | 37.0 | 0.00 | 0.00 | 0.00 | 59 | 1013.7 |
| 20260904111602 | 27 | 215 | 19.3 | 35.4 | 0.00 | 0.00 | 0.00 | 58 | 1013.9 |
| 20260904111059 | 27 | 241 | 14.5 | 30.6 | 0.00 | 0.00 | 0.00 | 59 | 1014.0 |
| 20260904110555 | 27 | 258 | 11.3 | 20.9 | 0.00 | 0.00 | 0.00 | 61 | 1014.0 |
| 20260904110057 | 26 | 261 | 11.3 | 32.2 | 0.00 | 0.00 | 0.00 | 61 | 1014.0 |
| 20260904105554 | 26 | 233 | 12.9 | 29.0 | 0.00 | 0.00 | 0.00 | 62 | 1014.1 |
| 20260904105057 | 26 | 250 | 16.1 | 29.0 | 0.00 | 0.00 | 0.00 | 63 | 1014.1 |
| 20260904104556 | 26 | 240 | 6.4 | 30.6 | 0.00 | 0.00 | 0.00 | 64 | 1014.2 |
| 20260904104050 | 25 | 248 | 11.3 | 30.6 | 0.00 | 0.00 | 0.00 | 64 | 1014.3 |
| 20260904103548 | 25 | 258 | 12.9 | 29.0 | 0.00 | 0.00 | 0.00 | 65 | 1014.4 |
| 20260904103047 | 25 | 256 | 17.7 | 29.0 | 0.00 | 0.00 | 0.00 | 65 | 1014.4 |
| 20260904102547 | 25 | 226 | 8.0 | 17.7 | 0.00 | 0.00 | 0.00 | 66 | 1014.2 |
| 20260904102046 | 25 | 226 | 8.0 | 20.9 | 0.00 | 0.00 | 0.00 | 67 | 1014.4 |
| 20260904101547 | 25 | 242 | 11.3 | 20.9 | 0.00 | 0.00 | 0.00 | 66 | 1014.3 |
| 20260904101049 | 25 | 271 | 8.0 | 17.7 | 0.00 | 0.00 | 0.00 | 67 | 1014.5 |
| 20260904100545 | 25 | 226 | 9.7 | 20.9 | 0.00 | 0.00 | 0.00 | 68 | 1014.5 |
| 20260904100044 | 24 | 229 | 11.3 | 22.5 | 0.00 | 0.00 | 0.00 | 68 | 1014.4 |
| 20260904095544 | 24 | 216 | 12.9 | 25.7 | 0.00 | 0.00 | 0.00 | 68 | 1014.4 |
| 20260904095044 | 24 | 233 | 16.1 | 25.7 | 0.00 | 0.00 | 0.00 | 68 | 1014.5 |
| 20260904094542 | 24 | 229 | 11.3 | 27.4 | 0.00 | 0.00 | 0.00 | 69 | 1014.5 |